owner,sensor,date,latitude,longitude,vertical_datum,sea_water_temperature,qcFlag 
WAVCIS,ioos:station:WAVCIS:CSI16:2,2009-10-01T00:00:00Z,29.4012,-89.0355,10.0,28.113,11111222 
WAVCIS,ioos:station:WAVCIS:CSI16:2,2009-10-01T00:15:00Z,29.4012,-89.0355,10.0,28.115,11111222 
WAVCIS,ioos:station:WAVCIS:CSI16:2,2009-10-01T00:30:00Z,29.4012,-89.0355,10.0,28.127,11111222 
WAVCIS,ioos:station:WAVCIS:CSI16:2,2009-10-01T00:45:00Z,29.4012,-89.0355,10.0,28.126,11111222 
WAVCIS,ioos:station:WAVCIS:CSI16:2,2009-10-01T01:00:00Z,29.4012,-89.0355,10.0,28.134,11111222 
WAVCIS,ioos:station:WAVCIS:CSI16:2,2009-10-01T01:15:00Z,29.4012,-89.0355,10.0,28.149,11111222 
WAVCIS,ioos:station:WAVCIS:CSI16:2,2009-10-01T01:30:00Z,29.4012,-89.0355,10.0,28.169,11111222 
WAVCIS,ioos:station:WAVCIS:CSI16:2,2009-10-01T01:45:00Z,29.4012,-89.0355,10.0,28.209,11111222 
WAVCIS,ioos:station:WAVCIS:CSI16:2,2009-10-01T02:00:00Z,29.4012,-89.0355,10.0,28.217,11111222 
WAVCIS,ioos:station:WAVCIS:CSI16:2,2009-10-01T02:15:00Z,29.4012,-89.0355,10.0,28.29,11111222 
WAVCIS,ioos:station:WAVCIS:CSI16:2,2009-10-01T02:30:00Z,29.4012,-89.0355,10.0,28.308,11111222 
WAVCIS,ioos:station:WAVCIS:CSI16:2,2009-10-01T02:45:00Z,29.4012,-89.0355,10.0,28.253,11111222 
WAVCIS,ioos:station:WAVCIS:CSI16:2,2009-10-01T03:00:00Z,29.4012,-89.0355,10.0,28.174,11111222 
WAVCIS,ioos:station:WAVCIS:CSI16:2,2009-10-01T03:15:00Z,29.4012,-89.0355,10.0,28.134,11111222 
WAVCIS,ioos:station:WAVCIS:CSI16:2,2009-10-01T03:30:00Z,29.4012,-89.0355,10.0,28.119,11111222 
WAVCIS,ioos:station:WAVCIS:CSI16:2,2009-10-01T03:45:00Z,29.4012,-89.0355,10.0,28.111,11111222 
WAVCIS,ioos:station:WAVCIS:CSI16:2,2009-10-01T04:00:00Z,29.4012,-89.0355,10.0,28.12,11111222 
WAVCIS,ioos:station:WAVCIS:CSI16:2,2009-10-01T04:15:00Z,29.4012,-89.0355,10.0,28.094,11111222 
WAVCIS,ioos:station:WAVCIS:CSI16:2,2009-10-01T04:30:00Z,29.4012,-89.0355,10.0,28.198,11111222 
WAVCIS,ioos:station:WAVCIS:CSI16:2,2009-10-01T04:45:00Z,29.4012,-89.0355,10.0,28.237,11111222 
WAVCIS,ioos:station:WAVCIS:CSI16:2,2009-10-01T05:00:00Z,29.4012,-89.0355,10.0,28.25,11111222 
WAVCIS,ioos:station:WAVCIS:CSI16:2,2009-10-01T05:15:00Z,29.4012,-89.0355,10.0,28.265,11111222 
WAVCIS,ioos:station:WAVCIS:CSI16:2,2009-10-01T05:30:00Z,29.4012,-89.0355,10.0,28.279,11111222 
WAVCIS,ioos:station:WAVCIS:CSI16:2,2009-10-01T05:45:00Z,29.4012,-89.0355,10.0,28.294,11111222 
WAVCIS,ioos:station:WAVCIS:CSI16:2,2009-10-01T06:00:00Z,29.4012,-89.0355,10.0,28.293,11111222 
WAVCIS,ioos:station:WAVCIS:CSI16:2,2009-10-01T06:15:00Z,29.4012,-89.0355,10.0,28.276,11111222 
WAVCIS,ioos:station:WAVCIS:CSI16:2,2009-10-01T06:30:00Z,29.4012,-89.0355,10.0,28.266,11111222 
WAVCIS,ioos:station:WAVCIS:CSI16:2,2009-10-01T06:45:00Z,29.4012,-89.0355,10.0,28.262,11111222 
WAVCIS,ioos:station:WAVCIS:CSI16:2,2009-10-01T07:00:00Z,29.4012,-89.0355,10.0,28.245,11111222 
WAVCIS,ioos:station:WAVCIS:CSI16:2,2009-10-01T07:15:00Z,29.4012,-89.0355,10.0,28.222,11111222 
WAVCIS,ioos:station:WAVCIS:CSI16:2,2009-10-01T07:30:00Z,29.4012,-89.0355,10.0,28.203,11111222 
WAVCIS,ioos:station:WAVCIS:CSI16:2,2009-10-01T07:45:00Z,29.4012,-89.0355,10.0,28.197,11111222 
WAVCIS,ioos:station:WAVCIS:CSI16:2,2009-10-01T08:00:00Z,29.4012,-89.0355,10.0,28.181,11111222 
WAVCIS,ioos:station:WAVCIS:CSI16:2,2009-10-01T08:15:00Z,29.4012,-89.0355,10.0,28.171,11111222 
WAVCIS,ioos:station:WAVCIS:CSI16:2,2009-10-01T08:30:00Z,29.4012,-89.0355,10.0,28.163,11111222 
WAVCIS,ioos:station:WAVCIS:CSI16:2,2009-10-01T08:45:00Z,29.4012,-89.0355,10.0,28.151,11111222 
WAVCIS,ioos:station:WAVCIS:CSI16:2,2009-10-01T09:00:00Z,29.4012,-89.0355,10.0,28.123,11111222 
WAVCIS,ioos:station:WAVCIS:CSI16:2,2009-10-01T09:15:00Z,29.4012,-89.0355,10.0,28.101,11111222 
WAVCIS,ioos:station:WAVCIS:CSI16:2,2009-10-01T09:30:00Z,29.4012,-89.0355,10.0,28.105,11111222 
WAVCIS,ioos:station:WAVCIS:CSI16:2,2009-10-01T09:45:00Z,29.4012,-89.0355,10.0,28.095,11111222 
WAVCIS,ioos:station:WAVCIS:CSI16:2,2009-10-01T10:00:00Z,29.4012,-89.0355,10.0,28.097,11111222 
WAVCIS,ioos:station:WAVCIS:CSI16:2,2009-10-01T10:15:00Z,29.4012,-89.0355,10.0,28.102,11111222 
WAVCIS,ioos:station:WAVCIS:CSI16:2,2009-10-01T10:30:00Z,29.4012,-89.0355,10.0,28.104,11111222 
WAVCIS,ioos:station:WAVCIS:CSI16:2,2009-10-01T10:45:00Z,29.4012,-89.0355,10.0,28.104,11111222 
WAVCIS,ioos:station:WAVCIS:CSI16:2,2009-10-01T11:00:00Z,29.4012,-89.0355,10.0,28.093,11111222 
WAVCIS,ioos:station:WAVCIS:CSI16:2,2009-10-01T11:15:00Z,29.4012,-89.0355,10.0,28.094,11111222 
WAVCIS,ioos:station:WAVCIS:CSI16:2,2009-10-01T11:30:00Z,29.4012,-89.0355,10.0,28.083,11111222 
WAVCIS,ioos:station:WAVCIS:CSI16:2,2009-10-01T11:45:00Z,29.4012,-89.0355,10.0,28.076,11111222 
WAVCIS,ioos:station:WAVCIS:CSI16:2,2009-10-01T12:00:00Z,29.4012,-89.0355,10.0,28.077,11111222 
WAVCIS,ioos:station:WAVCIS:CSI16:2,2009-10-01T12:15:00Z,29.4012,-89.0355,10.0,28.067,11111222 
WAVCIS,ioos:station:WAVCIS:CSI16:2,2009-10-01T12:30:00Z,29.4012,-89.0355,10.0,28.078,11111222 
WAVCIS,ioos:station:WAVCIS:CSI16:2,2009-10-01T12:45:00Z,29.4012,-89.0355,10.0,28.059,11111222 
WAVCIS,ioos:station:WAVCIS:CSI16:2,2009-10-01T13:00:00Z,29.4012,-89.0355,10.0,28.062,11111222 
WAVCIS,ioos:station:WAVCIS:CSI16:2,2009-10-01T13:15:00Z,29.4012,-89.0355,10.0,28.049,11111222 
WAVCIS,ioos:station:WAVCIS:CSI16:2,2009-10-01T13:30:00Z,29.4012,-89.0355,10.0,28.052,11111222 
WAVCIS,ioos:station:WAVCIS:CSI16:2,2009-10-01T13:45:00Z,29.4012,-89.0355,10.0,28.042,11111222 
WAVCIS,ioos:station:WAVCIS:CSI16:2,2009-10-01T14:00:00Z,29.4012,-89.0355,10.0,28.037,11111222 
WAVCIS,ioos:station:WAVCIS:CSI16:2,2009-10-01T14:15:00Z,29.4012,-89.0355,10.0,28.05,11111222 
WAVCIS,ioos:station:WAVCIS:CSI16:2,2009-10-01T14:30:00Z,29.4012,-89.0355,10.0,28.055,11111222 
WAVCIS,ioos:station:WAVCIS:CSI16:2,2009-10-01T14:45:00Z,29.4012,-89.0355,10.0,28.054,11111222 
WAVCIS,ioos:station:WAVCIS:CSI16:2,2009-10-01T15:00:00Z,29.4012,-89.0355,10.0,28.054,11111222 
WAVCIS,ioos:station:WAVCIS:CSI16:2,2009-10-01T15:15:00Z,29.4012,-89.0355,10.0,28.063,11111222 
WAVCIS,ioos:station:WAVCIS:CSI16:2,2009-10-01T15:30:00Z,29.4012,-89.0355,10.0,28.063,11111222 
WAVCIS,ioos:station:WAVCIS:CSI16:2,2009-10-01T15:45:00Z,29.4012,-89.0355,10.0,28.072,11111222 
WAVCIS,ioos:station:WAVCIS:CSI16:2,2009-10-01T16:00:00Z,29.4012,-89.0355,10.0,28.068,11111222 
WAVCIS,ioos:station:WAVCIS:CSI16:2,2009-10-01T16:15:00Z,29.4012,-89.0355,10.0,28.075,11111222 
WAVCIS,ioos:station:WAVCIS:CSI16:2,2009-10-01T16:30:00Z,29.4012,-89.0355,10.0,28.076,11111222 
WAVCIS,ioos:station:WAVCIS:CSI16:2,2009-10-01T16:45:00Z,29.4012,-89.0355,10.0,28.078,11111222 
WAVCIS,ioos:station:WAVCIS:CSI16:2,2009-10-01T17:00:00Z,29.4012,-89.0355,10.0,28.079,11111222 
WAVCIS,ioos:station:WAVCIS:CSI16:2,2009-10-01T17:15:00Z,29.4012,-89.0355,10.0,28.08,11111222 
WAVCIS,ioos:station:WAVCIS:CSI16:2,2009-10-01T17:30:00Z,29.4012,-89.0355,10.0,28.078,11111222 
WAVCIS,ioos:station:WAVCIS:CSI16:2,2009-10-01T17:45:00Z,29.4012,-89.0355,10.0,28.071,11111222 
WAVCIS,ioos:station:WAVCIS:CSI16:2,2009-10-01T18:00:00Z,29.4012,-89.0355,10.0,28.075,11111222 
WAVCIS,ioos:station:WAVCIS:CSI16:2,2009-10-01T18:15:00Z,29.4012,-89.0355,10.0,28.081,11111222 
WAVCIS,ioos:station:WAVCIS:CSI16:2,2009-10-01T18:30:00Z,29.4012,-89.0355,10.0,28.076,11111222 
WAVCIS,ioos:station:WAVCIS:CSI16:2,2009-10-01T18:45:00Z,29.4012,-89.0355,10.0,28.077,11111222 
WAVCIS,ioos:station:WAVCIS:CSI16:2,2009-10-01T19:00:00Z,29.4012,-89.0355,10.0,28.082,11111222 
WAVCIS,ioos:station:WAVCIS:CSI16:2,2009-10-01T19:15:00Z,29.4012,-89.0355,10.0,28.062,11111222 
WAVCIS,ioos:station:WAVCIS:CSI16:2,2009-10-01T19:30:00Z,29.4012,-89.0355,10.0,28.063,11111222 
WAVCIS,ioos:station:WAVCIS:CSI16:2,2009-10-01T19:45:00Z,29.4012,-89.0355,10.0,28.062,11111222 
WAVCIS,ioos:station:WAVCIS:CSI16:2,2009-10-01T20:00:00Z,29.4012,-89.0355,10.0,28.064,11111222 
WAVCIS,ioos:station:WAVCIS:CSI16:2,2009-10-01T20:15:00Z,29.4012,-89.0355,10.0,28.064,11111222 
WAVCIS,ioos:station:WAVCIS:CSI16:2,2009-10-01T20:30:00Z,29.4012,-89.0355,10.0,28.062,11111222 
WAVCIS,ioos:station:WAVCIS:CSI16:2,2009-10-01T20:45:00Z,29.4012,-89.0355,10.0,28.064,11111222 
WAVCIS,ioos:station:WAVCIS:CSI16:2,2009-10-01T21:00:00Z,29.4012,-89.0355,10.0,28.064,11111222 
WAVCIS,ioos:station:WAVCIS:CSI16:2,2009-10-01T21:15:00Z,29.4012,-89.0355,10.0,28.059,11111222 
WAVCIS,ioos:station:WAVCIS:CSI16:2,2009-10-01T21:30:00Z,29.4012,-89.0355,10.0,28.067,11111222 
WAVCIS,ioos:station:WAVCIS:CSI16:2,2009-10-01T21:45:00Z,29.4012,-89.0355,10.0,28.066,11111222 
WAVCIS,ioos:station:WAVCIS:CSI16:2,2009-10-01T22:00:00Z,29.4012,-89.0355,10.0,28.069,11111222 
WAVCIS,ioos:station:WAVCIS:CSI16:2,2009-10-01T22:15:00Z,29.4012,-89.0355,10.0,28.061,11111222 
WAVCIS,ioos:station:WAVCIS:CSI16:2,2009-10-01T22:30:00Z,29.4012,-89.0355,10.0,28.065,11111222 
WAVCIS,ioos:station:WAVCIS:CSI16:2,2009-10-01T22:45:00Z,29.4012,-89.0355,10.0,28.062,11111222 
WAVCIS,ioos:station:WAVCIS:CSI16:2,2009-10-01T23:00:00Z,29.4012,-89.0355,10.0,28.059,11111222 
WAVCIS,ioos:station:WAVCIS:CSI16:2,2009-10-01T23:15:00Z,29.4012,-89.0355,10.0,28.051,11111222 
WAVCIS,ioos:station:WAVCIS:CSI16:2,2009-10-01T23:30:00Z,29.4012,-89.0355,10.0,28.05,11111222 
WAVCIS,ioos:station:WAVCIS:CSI16:2,2009-10-01T23:45:00Z,29.4012,-89.0355,10.0,28.045,11111222 
WAVCIS,ioos:station:WAVCIS:CSI16:2,2009-10-02T00:00:00Z,29.4012,-89.0355,10.0,28.047,11111222 
WAVCIS,ioos:station:WAVCIS:CSI16:2,2009-10-02T00:15:00Z,29.4012,-89.0355,10.0,28.054,11111222 
WAVCIS,ioos:station:WAVCIS:CSI16:2,2009-10-02T00:30:00Z,29.4012,-89.0355,10.0,28.055,11111222 
WAVCIS,ioos:station:WAVCIS:CSI16:2,2009-10-02T00:45:00Z,29.4012,-89.0355,10.0,28.06,11111222 
WAVCIS,ioos:station:WAVCIS:CSI16:2,2009-10-02T01:00:00Z,29.4012,-89.0355,10.0,28.055,11111222 
WAVCIS,ioos:station:WAVCIS:CSI16:2,2009-10-02T01:15:00Z,29.4012,-89.0355,10.0,28.064,11111222 
WAVCIS,ioos:station:WAVCIS:CSI16:2,2009-10-02T01:30:00Z,29.4012,-89.0355,10.0,28.06,11111222 
WAVCIS,ioos:station:WAVCIS:CSI16:2,2009-10-02T01:45:00Z,29.4012,-89.0355,10.0,28.059,11111222 
WAVCIS,ioos:station:WAVCIS:CSI16:2,2009-10-02T02:00:00Z,29.4012,-89.0355,10.0,28.059,11111222 
WAVCIS,ioos:station:WAVCIS:CSI16:2,2009-10-02T02:15:00Z,29.4012,-89.0355,10.0,28.059,11111222 
WAVCIS,ioos:station:WAVCIS:CSI16:2,2009-10-02T02:30:00Z,29.4012,-89.0355,10.0,28.062,11111222 
WAVCIS,ioos:station:WAVCIS:CSI16:2,2009-10-02T02:45:00Z,29.4012,-89.0355,10.0,28.062,11111222 
WAVCIS,ioos:station:WAVCIS:CSI16:2,2009-10-02T03:00:00Z,29.4012,-89.0355,10.0,28.062,11111222 
WAVCIS,ioos:station:WAVCIS:CSI16:2,2009-10-02T03:15:00Z,29.4012,-89.0355,10.0,28.063,11111222 
WAVCIS,ioos:station:WAVCIS:CSI16:2,2009-10-02T03:30:00Z,29.4012,-89.0355,10.0,28.064,11111222 
WAVCIS,ioos:station:WAVCIS:CSI16:2,2009-10-02T03:45:00Z,29.4012,-89.0355,10.0,28.066,11111222 
WAVCIS,ioos:station:WAVCIS:CSI16:2,2009-10-02T04:00:00Z,29.4012,-89.0355,10.0,28.068,11111222 
WAVCIS,ioos:station:WAVCIS:CSI16:2,2009-10-02T04:15:00Z,29.4012,-89.0355,10.0,28.072,11111222 
WAVCIS,ioos:station:WAVCIS:CSI16:2,2009-10-02T04:30:00Z,29.4012,-89.0355,10.0,28.087,11111222 
WAVCIS,ioos:station:WAVCIS:CSI16:2,2009-10-02T04:45:00Z,29.4012,-89.0355,10.0,28.088,11111222 
WAVCIS,ioos:station:WAVCIS:CSI16:2,2009-10-02T05:00:00Z,29.4012,-89.0355,10.0,28.089,11111222 
WAVCIS,ioos:station:WAVCIS:CSI16:2,2009-10-02T05:15:00Z,29.4012,-89.0355,10.0,28.089,11111222 
WAVCIS,ioos:station:WAVCIS:CSI16:2,2009-10-02T05:30:00Z,29.4012,-89.0355,10.0,28.086,11111222 
WAVCIS,ioos:station:WAVCIS:CSI16:2,2009-10-02T05:45:00Z,29.4012,-89.0355,10.0,28.075,11111222 
WAVCIS,ioos:station:WAVCIS:CSI16:2,2009-10-02T06:00:00Z,29.4012,-89.0355,10.0,28.082,11111222 
WAVCIS,ioos:station:WAVCIS:CSI16:2,2009-10-02T06:15:00Z,29.4012,-89.0355,10.0,28.082,11111222 
WAVCIS,ioos:station:WAVCIS:CSI16:2,2009-10-02T06:30:00Z,29.4012,-89.0355,10.0,28.075,11111222 
WAVCIS,ioos:station:WAVCIS:CSI16:2,2009-10-02T06:45:00Z,29.4012,-89.0355,10.0,28.069,11111222 
WAVCIS,ioos:station:WAVCIS:CSI16:2,2009-10-02T07:00:00Z,29.4012,-89.0355,10.0,28.071,11111222 
WAVCIS,ioos:station:WAVCIS:CSI16:2,2009-10-02T07:15:00Z,29.4012,-89.0355,10.0,28.069,11111222 
WAVCIS,ioos:station:WAVCIS:CSI16:2,2009-10-02T07:30:00Z,29.4012,-89.0355,10.0,28.068,11111222 
WAVCIS,ioos:station:WAVCIS:CSI16:2,2009-10-02T07:45:00Z,29.4012,-89.0355,10.0,28.069,11111222 
WAVCIS,ioos:station:WAVCIS:CSI16:2,2009-10-02T08:00:00Z,29.4012,-89.0355,10.0,28.074,11111222 
WAVCIS,ioos:station:WAVCIS:CSI16:2,2009-10-02T08:15:00Z,29.4012,-89.0355,10.0,28.076,11111222 
WAVCIS,ioos:station:WAVCIS:CSI16:2,2009-10-02T08:30:00Z,29.4012,-89.0355,10.0,28.07,11111222 
WAVCIS,ioos:station:WAVCIS:CSI16:2,2009-10-02T08:45:00Z,29.4012,-89.0355,10.0,28.07,11111222 
WAVCIS,ioos:station:WAVCIS:CSI16:2,2009-10-02T09:00:00Z,29.4012,-89.0355,10.0,28.076,11111222 
WAVCIS,ioos:station:WAVCIS:CSI16:2,2009-10-02T09:15:00Z,29.4012,-89.0355,10.0,28.071,11111222 
WAVCIS,ioos:station:WAVCIS:CSI16:2,2009-10-02T09:30:00Z,29.4012,-89.0355,10.0,28.07,11111222 
WAVCIS,ioos:station:WAVCIS:CSI16:2,2009-10-02T09:45:00Z,29.4012,-89.0355,10.0,28.067,11111222 
WAVCIS,ioos:station:WAVCIS:CSI16:2,2009-10-02T10:00:00Z,29.4012,-89.0355,10.0,28.07,11111222 
WAVCIS,ioos:station:WAVCIS:CSI16:2,2009-10-02T10:15:00Z,29.4012,-89.0355,10.0,28.068,11111222 
WAVCIS,ioos:station:WAVCIS:CSI16:2,2009-10-02T10:30:00Z,29.4012,-89.0355,10.0,28.074,11111222 
WAVCIS,ioos:station:WAVCIS:CSI16:2,2009-10-02T10:45:00Z,29.4012,-89.0355,10.0,28.054,11111222 
WAVCIS,ioos:station:WAVCIS:CSI16:2,2009-10-02T11:00:00Z,29.4012,-89.0355,10.0,28.051,11111222 
WAVCIS,ioos:station:WAVCIS:CSI16:2,2009-10-02T11:15:00Z,29.4012,-89.0355,10.0,28.05,11111222 
WAVCIS,ioos:station:WAVCIS:CSI16:2,2009-10-02T11:30:00Z,29.4012,-89.0355,10.0,28.05,11111222 
WAVCIS,ioos:station:WAVCIS:CSI16:2,2009-10-02T11:45:00Z,29.4012,-89.0355,10.0,28.048,11111222 
WAVCIS,ioos:station:WAVCIS:CSI16:2,2009-10-02T12:00:00Z,29.4012,-89.0355,10.0,28.048,11111222 
WAVCIS,ioos:station:WAVCIS:CSI16:2,2009-10-02T12:15:00Z,29.4012,-89.0355,10.0,28.055,11111222 
WAVCIS,ioos:station:WAVCIS:CSI16:2,2009-10-02T12:30:00Z,29.4012,-89.0355,10.0,28.142,11111222 
WAVCIS,ioos:station:WAVCIS:CSI16:2,2009-10-02T12:45:00Z,29.4012,-89.0355,10.0,28.134,11111222 
WAVCIS,ioos:station:WAVCIS:CSI16:2,2009-10-02T13:00:00Z,29.4012,-89.0355,10.0,28.173,11111222 
WAVCIS,ioos:station:WAVCIS:CSI16:2,2009-10-02T13:15:00Z,29.4012,-89.0355,10.0,28.222,11111222 
WAVCIS,ioos:station:WAVCIS:CSI16:2,2009-10-02T13:30:00Z,29.4012,-89.0355,10.0,28.292,11111222 
WAVCIS,ioos:station:WAVCIS:CSI16:2,2009-10-02T13:45:00Z,29.4012,-89.0355,10.0,28.288,11111222 
WAVCIS,ioos:station:WAVCIS:CSI16:2,2009-10-02T14:00:00Z,29.4012,-89.0355,10.0,28.335,11111222 
WAVCIS,ioos:station:WAVCIS:CSI16:2,2009-10-02T14:15:00Z,29.4012,-89.0355,10.0,28.406,11111222 
WAVCIS,ioos:station:WAVCIS:CSI16:2,2009-10-02T14:30:00Z,29.4012,-89.0355,10.0,28.382,11111222 
WAVCIS,ioos:station:WAVCIS:CSI16:2,2009-10-02T14:45:00Z,29.4012,-89.0355,10.0,28.369,11111222 
WAVCIS,ioos:station:WAVCIS:CSI16:2,2009-10-02T15:00:00Z,29.4012,-89.0355,10.0,28.353,11111222 
WAVCIS,ioos:station:WAVCIS:CSI16:2,2009-10-02T15:15:00Z,29.4012,-89.0355,10.0,28.357,11111222 
WAVCIS,ioos:station:WAVCIS:CSI16:2,2009-10-02T15:30:00Z,29.4012,-89.0355,10.0,28.4,11111222 
WAVCIS,ioos:station:WAVCIS:CSI16:2,2009-10-02T15:45:00Z,29.4012,-89.0355,10.0,28.368,11111222 
WAVCIS,ioos:station:WAVCIS:CSI16:2,2009-10-02T16:00:00Z,29.4012,-89.0355,10.0,28.336,11111222 
WAVCIS,ioos:station:WAVCIS:CSI16:2,2009-10-02T16:15:00Z,29.4012,-89.0355,10.0,28.351,11111222 
WAVCIS,ioos:station:WAVCIS:CSI16:2,2009-10-02T16:30:00Z,29.4012,-89.0355,10.0,28.334,11111222 
WAVCIS,ioos:station:WAVCIS:CSI16:2,2009-10-02T16:45:00Z,29.4012,-89.0355,10.0,28.35,11111222 
WAVCIS,ioos:station:WAVCIS:CSI16:2,2009-10-02T17:00:00Z,29.4012,-89.0355,10.0,28.372,11111222 
WAVCIS,ioos:station:WAVCIS:CSI16:2,2009-10-02T17:15:00Z,29.4012,-89.0355,10.0,28.396,11111222 
WAVCIS,ioos:station:WAVCIS:CSI16:2,2009-10-02T17:30:00Z,29.4012,-89.0355,10.0,28.348,11111222 
WAVCIS,ioos:station:WAVCIS:CSI16:2,2009-10-02T17:45:00Z,29.4012,-89.0355,10.0,28.372,11111222 
WAVCIS,ioos:station:WAVCIS:CSI16:2,2009-10-02T18:00:00Z,29.4012,-89.0355,10.0,28.39,11111222 
WAVCIS,ioos:station:WAVCIS:CSI16:2,2009-10-02T18:15:00Z,29.4012,-89.0355,10.0,28.345,11111222 
WAVCIS,ioos:station:WAVCIS:CSI16:2,2009-10-02T18:30:00Z,29.4012,-89.0355,10.0,28.384,11111222 
WAVCIS,ioos:station:WAVCIS:CSI16:2,2009-10-02T18:45:00Z,29.4012,-89.0355,10.0,28.302,11111222 
WAVCIS,ioos:station:WAVCIS:CSI16:2,2009-10-02T19:00:00Z,29.4012,-89.0355,10.0,28.327,11111222 
WAVCIS,ioos:station:WAVCIS:CSI16:2,2009-10-02T19:15:00Z,29.4012,-89.0355,10.0,28.299,11111222 
WAVCIS,ioos:station:WAVCIS:CSI16:2,2009-10-02T19:30:00Z,29.4012,-89.0355,10.0,28.466,11111222 
WAVCIS,ioos:station:WAVCIS:CSI16:2,2009-10-02T19:45:00Z,29.4012,-89.0355,10.0,28.422,11111222 
WAVCIS,ioos:station:WAVCIS:CSI16:2,2009-10-02T20:00:00Z,29.4012,-89.0355,10.0,28.382,11111222 
WAVCIS,ioos:station:WAVCIS:CSI16:2,2009-10-02T20:15:00Z,29.4012,-89.0355,10.0,28.388,11111222 
WAVCIS,ioos:station:WAVCIS:CSI16:2,2009-10-02T20:30:00Z,29.4012,-89.0355,10.0,28.291,11111222 
WAVCIS,ioos:station:WAVCIS:CSI16:2,2009-10-02T20:45:00Z,29.4012,-89.0355,10.0,28.218,11111222 
WAVCIS,ioos:station:WAVCIS:CSI16:2,2009-10-02T21:00:00Z,29.4012,-89.0355,10.0,28.178,11111222 
WAVCIS,ioos:station:WAVCIS:CSI16:2,2009-10-02T21:15:00Z,29.4012,-89.0355,10.0,28.223,11111222 
WAVCIS,ioos:station:WAVCIS:CSI16:2,2009-10-02T21:30:00Z,29.4012,-89.0355,10.0,28.239,11111222 
WAVCIS,ioos:station:WAVCIS:CSI16:2,2009-10-02T21:45:00Z,29.4012,-89.0355,10.0,28.306,11111222 
WAVCIS,ioos:station:WAVCIS:CSI16:2,2009-10-02T22:00:00Z,29.4012,-89.0355,10.0,28.283,11111222 
WAVCIS,ioos:station:WAVCIS:CSI16:2,2009-10-02T22:15:00Z,29.4012,-89.0355,10.0,28.276,11111222 
WAVCIS,ioos:station:WAVCIS:CSI16:2,2009-10-02T22:30:00Z,29.4012,-89.0355,10.0,28.196,11111222 
WAVCIS,ioos:station:WAVCIS:CSI16:2,2009-10-02T22:45:00Z,29.4012,-89.0355,10.0,28.205,11111222 
WAVCIS,ioos:station:WAVCIS:CSI16:2,2009-10-02T23:00:00Z,29.4012,-89.0355,10.0,28.323,11111222 
WAVCIS,ioos:station:WAVCIS:CSI16:2,2009-10-02T23:15:00Z,29.4012,-89.0355,10.0,28.324,11111222 
WAVCIS,ioos:station:WAVCIS:CSI16:2,2009-10-02T23:30:00Z,29.4012,-89.0355,10.0,28.305,11111222 
WAVCIS,ioos:station:WAVCIS:CSI16:2,2009-10-02T23:45:00Z,29.4012,-89.0355,10.0,28.263,11111222 
WAVCIS,ioos:station:WAVCIS:CSI16:2,2009-10-03T00:00:00Z,29.4012,-89.0355,10.0,28.237,11111222 
WAVCIS,ioos:station:WAVCIS:CSI16:2,2009-10-03T00:15:00Z,29.4012,-89.0355,10.0,28.187,11111222 
WAVCIS,ioos:station:WAVCIS:CSI16:2,2009-10-03T00:30:00Z,29.4012,-89.0355,10.0,28.194,11111222 
WAVCIS,ioos:station:WAVCIS:CSI16:2,2009-10-03T00:45:00Z,29.4012,-89.0355,10.0,28.288,11111222 
WAVCIS,ioos:station:WAVCIS:CSI16:2,2009-10-03T01:00:00Z,29.4012,-89.0355,10.0,28.316,11111222 
WAVCIS,ioos:station:WAVCIS:CSI16:2,2009-10-03T01:15:00Z,29.4012,-89.0355,10.0,28.319,11111222 
WAVCIS,ioos:station:WAVCIS:CSI16:2,2009-10-03T01:30:00Z,29.4012,-89.0355,10.0,28.269,11111222 
WAVCIS,ioos:station:WAVCIS:CSI16:2,2009-10-03T01:45:00Z,29.4012,-89.0355,10.0,28.294,11111222 
WAVCIS,ioos:station:WAVCIS:CSI16:2,2009-10-03T02:00:00Z,29.4012,-89.0355,10.0,28.262,11111222 
WAVCIS,ioos:station:WAVCIS:CSI16:2,2009-10-03T02:15:00Z,29.4012,-89.0355,10.0,28.227,11111222 
WAVCIS,ioos:station:WAVCIS:CSI16:2,2009-10-03T02:30:00Z,29.4012,-89.0355,10.0,28.219,11111222 
WAVCIS,ioos:station:WAVCIS:CSI16:2,2009-10-03T02:45:00Z,29.4012,-89.0355,10.0,28.247,11111222 
WAVCIS,ioos:station:WAVCIS:CSI16:2,2009-10-03T03:00:00Z,29.4012,-89.0355,10.0,28.237,11111222 
WAVCIS,ioos:station:WAVCIS:CSI16:2,2009-10-03T03:15:00Z,29.4012,-89.0355,10.0,28.211,11111222 
WAVCIS,ioos:station:WAVCIS:CSI16:2,2009-10-03T03:30:00Z,29.4012,-89.0355,10.0,28.252,11111222 
WAVCIS,ioos:station:WAVCIS:CSI16:2,2009-10-03T03:45:00Z,29.4012,-89.0355,10.0,28.239,11111222 
WAVCIS,ioos:station:WAVCIS:CSI16:2,2009-10-03T04:00:00Z,29.4012,-89.0355,10.0,28.258,11111222 
WAVCIS,ioos:station:WAVCIS:CSI16:2,2009-10-03T04:15:00Z,29.4012,-89.0355,10.0,28.211,11111222 
WAVCIS,ioos:station:WAVCIS:CSI16:2,2009-10-03T04:30:00Z,29.4012,-89.0355,10.0,28.213,11111222 
WAVCIS,ioos:station:WAVCIS:CSI16:2,2009-10-03T04:45:00Z,29.4012,-89.0355,10.0,28.217,11111222 
WAVCIS,ioos:station:WAVCIS:CSI16:2,2009-10-03T05:00:00Z,29.4012,-89.0355,10.0,28.231,11111222 
WAVCIS,ioos:station:WAVCIS:CSI16:2,2009-10-03T05:15:00Z,29.4012,-89.0355,10.0,28.194,11111222 
WAVCIS,ioos:station:WAVCIS:CSI16:2,2009-10-03T05:30:00Z,29.4012,-89.0355,10.0,28.173,11111222 
WAVCIS,ioos:station:WAVCIS:CSI16:2,2009-10-03T05:45:00Z,29.4012,-89.0355,10.0,28.148,11111222 
WAVCIS,ioos:station:WAVCIS:CSI16:2,2009-10-03T06:00:00Z,29.4012,-89.0355,10.0,28.13,11111222 
WAVCIS,ioos:station:WAVCIS:CSI16:2,2009-10-03T06:15:00Z,29.4012,-89.0355,10.0,28.121,11111222 
WAVCIS,ioos:station:WAVCIS:CSI16:2,2009-10-03T06:30:00Z,29.4012,-89.0355,10.0,28.114,11111222 
WAVCIS,ioos:station:WAVCIS:CSI16:2,2009-10-03T06:45:00Z,29.4012,-89.0355,10.0,28.105,11111222 
WAVCIS,ioos:station:WAVCIS:CSI16:2,2009-10-03T07:00:00Z,29.4012,-89.0355,10.0,28.11,11111222 
WAVCIS,ioos:station:WAVCIS:CSI16:2,2009-10-03T07:15:00Z,29.4012,-89.0355,10.0,28.111,11111222 
WAVCIS,ioos:station:WAVCIS:CSI16:2,2009-10-03T07:30:00Z,29.4012,-89.0355,10.0,28.109,11111222 
WAVCIS,ioos:station:WAVCIS:CSI16:2,2009-10-03T07:45:00Z,29.4012,-89.0355,10.0,28.106,11111222 
WAVCIS,ioos:station:WAVCIS:CSI16:2,2009-10-03T08:00:00Z,29.4012,-89.0355,10.0,28.097,11111222 
WAVCIS,ioos:station:WAVCIS:CSI16:2,2009-10-03T08:15:00Z,29.4012,-89.0355,10.0,28.1,11111222 
WAVCIS,ioos:station:WAVCIS:CSI16:2,2009-10-03T08:30:00Z,29.4012,-89.0355,10.0,28.108,11111222 
WAVCIS,ioos:station:WAVCIS:CSI16:2,2009-10-03T08:45:00Z,29.4012,-89.0355,10.0,28.086,11111222 
WAVCIS,ioos:station:WAVCIS:CSI16:2,2009-10-03T09:00:00Z,29.4012,-89.0355,10.0,28.098,11111222 
WAVCIS,ioos:station:WAVCIS:CSI16:2,2009-10-03T09:15:00Z,29.4012,-89.0355,10.0,28.111,11111222 
WAVCIS,ioos:station:WAVCIS:CSI16:2,2009-10-03T09:30:00Z,29.4012,-89.0355,10.0,28.106,11111222 
WAVCIS,ioos:station:WAVCIS:CSI16:2,2009-10-03T09:45:00Z,29.4012,-89.0355,10.0,28.113,11111222 
WAVCIS,ioos:station:WAVCIS:CSI16:2,2009-10-03T10:00:00Z,29.4012,-89.0355,10.0,28.111,11111222 
WAVCIS,ioos:station:WAVCIS:CSI16:2,2009-10-03T10:15:00Z,29.4012,-89.0355,10.0,28.16,11111222 
WAVCIS,ioos:station:WAVCIS:CSI16:2,2009-10-03T10:30:00Z,29.4012,-89.0355,10.0,28.217,11111222 
WAVCIS,ioos:station:WAVCIS:CSI16:2,2009-10-03T10:45:00Z,29.4012,-89.0355,10.0,28.333,11111222 
WAVCIS,ioos:station:WAVCIS:CSI16:2,2009-10-03T11:00:00Z,29.4012,-89.0355,10.0,28.236,11111222 
WAVCIS,ioos:station:WAVCIS:CSI16:2,2009-10-03T11:15:00Z,29.4012,-89.0355,10.0,28.296,11111222 
WAVCIS,ioos:station:WAVCIS:CSI16:2,2009-10-03T11:30:00Z,29.4012,-89.0355,10.0,28.354,11111222 
WAVCIS,ioos:station:WAVCIS:CSI16:2,2009-10-03T11:45:00Z,29.4012,-89.0355,10.0,28.382,11111222 
WAVCIS,ioos:station:WAVCIS:CSI16:2,2009-10-03T12:00:00Z,29.4012,-89.0355,10.0,28.375,11111222 
WAVCIS,ioos:station:WAVCIS:CSI16:2,2009-10-03T12:15:00Z,29.4012,-89.0355,10.0,28.341,11111222 
WAVCIS,ioos:station:WAVCIS:CSI16:2,2009-10-03T12:30:00Z,29.4012,-89.0355,10.0,28.379,11111222 
WAVCIS,ioos:station:WAVCIS:CSI16:2,2009-10-03T12:45:00Z,29.4012,-89.0355,10.0,28.397,11111222 
WAVCIS,ioos:station:WAVCIS:CSI16:2,2009-10-03T13:00:00Z,29.4012,-89.0355,10.0,28.368,11111222 
WAVCIS,ioos:station:WAVCIS:CSI16:2,2009-10-03T13:15:00Z,29.4012,-89.0355,10.0,28.349,11111222 
WAVCIS,ioos:station:WAVCIS:CSI16:2,2009-10-03T13:30:00Z,29.4012,-89.0355,10.0,28.395,11111222 
WAVCIS,ioos:station:WAVCIS:CSI16:2,2009-10-03T13:45:00Z,29.4012,-89.0355,10.0,28.412,11111222 
WAVCIS,ioos:station:WAVCIS:CSI16:2,2009-10-03T14:00:00Z,29.4012,-89.0355,10.0,28.414,11111222 
WAVCIS,ioos:station:WAVCIS:CSI16:2,2009-10-03T14:15:00Z,29.4012,-89.0355,10.0,28.414,11111222 
WAVCIS,ioos:station:WAVCIS:CSI16:2,2009-10-03T14:30:00Z,29.4012,-89.0355,10.0,28.411,11111222 
WAVCIS,ioos:station:WAVCIS:CSI16:2,2009-10-03T14:45:00Z,29.4012,-89.0355,10.0,28.374,11111222 